Weather History for KYNG - October, 2011

Change the Weather History Date:

Monday, October 3, 2011

  Actual Average Record
Temperature  
Mean Temperature 50 °F 55 °F  
Max Temperature 55 °F 65 °F 87 °F (1898)
Min Temperature 44 °F 45 °F 31 °F (1974)
Degree Days  
Heating Degree Days 15 10  
Month to date heating degree days 57 30  
Since 1 July heating degree days 178 213  
Cooling Degree Days 0 1  
Month to date cooling degree days 0 3  
Year to date cooling degree days 731 541  
Moisture  
Dew Point 48 °F    
Average Humidity 95    
Maximum Humidity 100    
Minimum Humidity 89    
Precipitation  
Precipitation 0.03 in 0.10 in 1.58 in (1986)
Month to date precipitation 0.62 0.30  
Year to date precipitation 42.86 30.27  
Snow  
Snow 0.00 in 0.00 in - ()
Month to date snowfall 0.0 0.0  
Since 1 July snowfall T 0.0  
Since 1 September snowfall 0.0 0.0  
Snow Depth 0.00 in    
Sea Level Pressure  
Sea Level Pressure 30.04 in    
Wind  
Wind Speed 5 mph (NW)    
Max Wind Speed 15 mph    
Max Gust Speed 18 mph    
Visibility 6 miles    
Events Fog , Rain    
T = Trace of Precipitation, MM = Missing Value Source: NWS Daily Summary

Daily Weather History Graph

Daily Weather History Graph

Search for Another Location

Airport or City:

Trip Planner

Search our weather history database for the weather conditions in past years. The results will help you decide how hot, cold, wet, or windy it might be!

Date:

Astronomy

Oct. 03, 2011 Rise Set
Actual Time 7:21 AM EDT 7:01 PM EDT
Civil Twilight 6:53 AM EDT 7:29 PM EDT
Nautical Twilight 6:21 AM EDT 8:01 PM EDT
Astronomical Twilight 5:49 AM EDT 8:33 PM EDT
Moon 2:21 PM EDT No Moon Set
Length of Visible Light 12h 35m
Length of Day
11h 40m
Waxing Crescent, 45% of the Moon is Illuminated
Oct 3
Waxing Crescent
Oct 3
First Quarter
Oct 11
Full
Oct 19
Last Quarter
Oct 26
New

Hourly Weather History & Observations

Time (EDT) Temp. Windchill Dew Point Humidity Pressure Visibility Wind Dir Wind Speed Gust Speed Precip Events Conditions
12:28 AM 44.6 °F 41.4 °F 42.8 °F 93% 29.98 in 10.0 mi North 5.8 mph - N/A   Scattered Clouds
12:42 AM 44.6 °F 40.7 °F 42.8 °F 93% 29.98 in 10.0 mi NW 6.9 mph - N/A   Overcast
12:51 AM 44.6 °F 40.2 °F 44.6 °F 100% 29.98 in 4.0 mi NNW 8.1 mph - N/A   Overcast
1:51 AM 46.0 °F 42.5 °F 44.1 °F 93% 30.00 in 7.0 mi NNW 6.9 mph - N/A   Overcast
2:42 AM 46.4 °F 43.5 °F 44.6 °F 93% 29.97 in 10.0 mi NNW 5.8 mph - N/A   Overcast
2:51 AM 45.0 °F 41.2 °F 44.1 °F 97% 29.99 in 10.0 mi NW 6.9 mph - N/A   Overcast
3:33 AM 46.4 °F 41.1 °F 44.6 °F 93% 29.98 in 7.0 mi NNW 11.5 mph - N/A   Overcast
3:51 AM 46.9 °F - 45.0 °F 93% 29.99 in 7.0 mi NNW 13.8 mph - N/A   Overcast
4:27 AM 46.4 °F 41.9 °F 44.6 °F 93% 29.97 in 10.0 mi NNW 9.2 mph - N/A   Overcast
4:51 AM 46.9 °F - 45.0 °F 93% 29.99 in 10.0 mi NW 4.6 mph - N/A   Overcast
5:51 AM 46.0 °F 44.8 °F 45.0 °F 96% 30.01 in 10.0 mi NW 3.5 mph - 0.00 in Rain Light Rain
6:17 AM 46.4 °F 43.5 °F 44.6 °F 93% 29.97 in 10.0 mi West 5.8 mph - 0.00 in   Overcast
6:51 AM 46.0 °F 42.5 °F 45.0 °F 96% 29.99 in 10.0 mi West 6.9 mph - 0.00 in   Overcast
7:12 AM 46.4 °F - 44.6 °F 93% 29.99 in 7.0 mi Calm Calm - N/A   Overcast
7:51 AM 46.4 °F 45.2 °F 46.4 °F 100% 29.99 in 2.0 mi West 3.5 mph - N/A Rain Light Rain
7:56 AM 46.4 °F 45.2 °F 46.4 °F 100% 30.00 in 1.0 mi West 3.5 mph - 0.00 in Rain Light Rain
8:13 AM 46.4 °F 45.2 °F 46.4 °F 100% 30.00 in 0.5 mi WNW 3.5 mph - 0.00 in Fog , Rain Light Rain
8:51 AM 46.9 °F - 46.0 °F 97% 30.03 in 0.8 mi WNW 3.5 mph - 0.01 in Rain Light Rain
9:51 AM 50.0 °F - 48.2 °F 94% 30.02 in 1.0 mi NNW 4.6 mph - N/A   Overcast
10:03 AM 50.0 °F - 48.2 °F 94% 30.02 in 2.0 mi North 4.6 mph - N/A   Overcast
10:31 AM 51.8 °F - 48.2 °F 88% 30.02 in 3.0 mi Calm Calm - N/A   Overcast
10:51 AM 51.1 °F - 48.9 °F 92% 30.03 in 10.0 mi NNE 4.6 mph - N/A   Overcast
11:51 AM 52.0 °F - 50.0 °F 93% 30.04 in 3.0 mi NNE 4.6 mph - N/A   Overcast
12:03 PM 51.8 °F - 48.2 °F 88% 30.03 in 0.5 mi North 4.6 mph - N/A Fog Light Drizzle
12:29 PM 51.8 °F - 50.0 °F 94% 30.03 in 1.0 mi Calm Calm - 0.01 in   Light Drizzle
12:39 PM 51.8 °F - 50.0 °F 94% 30.04 in 5.0 mi NNW 3.5 mph - 0.01 in   Light Drizzle
12:51 PM 51.1 °F - 50.0 °F 96% 30.06 in 10.0 mi Calm Calm - 0.01 in Rain Light Rain
1:21 PM 53.6 °F - 50.0 °F 88% 30.04 in 10.0 mi North 5.8 mph - 0.00 in   Overcast
1:51 PM 54.0 °F - 50.0 °F 86% 30.05 in 10.0 mi NNE 4.6 mph - 0.00 in   Overcast
2:14 PM 53.6 °F - 50.0 °F 88% 30.03 in 10.0 mi North 4.6 mph - N/A   Overcast
2:51 PM 54.0 °F - 50.0 °F 86% 30.05 in 10.0 mi NNW 6.9 mph - N/A   Overcast
3:15 PM 53.6 °F - 51.8 °F 94% 30.04 in 6.0 mi NW 8.1 mph - 0.00 in   Light Drizzle
3:51 PM 53.6 °F - 51.8 °F 94% 30.05 in 10.0 mi NW 5.8 mph - N/A   Overcast
4:51 PM 54.0 °F - 51.1 °F 90% 30.06 in 10.0 mi NW 8.1 mph - N/A   Overcast
5:51 PM 53.6 °F - 51.8 °F 94% 30.07 in 10.0 mi NW 8.1 mph - N/A   Overcast
6:30 PM 53.6 °F - 51.8 °F 94% 30.09 in 10.0 mi NW 9.2 mph - N/A   Overcast
6:51 PM 53.1 °F - 51.1 °F 93% 30.10 in 10.0 mi WNW 5.8 mph - N/A   Overcast
7:25 PM 51.8 °F - 51.8 °F 100% 30.10 in 10.0 mi NW 5.8 mph - N/A   Mostly Cloudy
7:35 PM 51.8 °F - 51.8 °F 100% 30.11 in 10.0 mi NNW 6.9 mph - N/A   Mostly Cloudy
7:51 PM 53.1 °F - 51.1 °F 93% 30.12 in 10.0 mi NNW 10.4 mph - N/A   Mostly Cloudy
8:51 PM 52.0 °F - 50.0 °F 93% 30.13 in 10.0 mi NNW 6.9 mph - N/A   Mostly Cloudy
9:29 PM 51.8 °F - 50.0 °F 94% 30.13 in 5.0 mi NW 3.5 mph - N/A   Overcast
9:36 PM 51.8 °F - 50.0 °F 94% 30.13 in 2.5 mi WNW 5.8 mph - N/A Fog Patches of Fog
9:51 PM 52.0 °F - 51.1 °F 97% 30.14 in 2.5 mi NW 3.5 mph - N/A Fog Patches of Fog
10:18 PM 51.8 °F - 51.8 °F 100% 30.13 in 0.5 mi NW 6.9 mph - N/A Fog Fog
10:36 PM 51.8 °F - 51.8 °F 100% 30.14 in 0.2 mi WNW 4.6 mph - N/A Fog Fog
10:51 PM 51.1 °F - 51.1 °F 100% 30.15 in 0.2 mi Calm Calm - N/A Fog Fog
11:51 PM 48.0 °F - 46.9 °F 96% 30.15 in 0.1 mi Calm Calm - N/A Fog Fog